Location: Poprad
(49.0500°N, 20.3000°E)
Time: 01:30:54
(UTC+02:00)

STARS - Visible Passes

Search period start: 19 April 2024 00:00
Search period end: 29 April 2024 00:00
Orbit: 608 x 620 km, 98.1° (Epoch: 18 April)

Date Brightness Start Highest point End Pass type
(mag) Time Alt. Az. Time Alt. Az. Time Alt. Az.
19 Apr ? 01:19:20 10° N 01:22:22 39° NNW 01:22:22 39° NNW visible
19 Apr ? 23:59:14 10° NE 00:01:04 20° ENE 00:01:04 20° ENE visible
20 Apr ? 01:34:58 10° N 01:38:07 33° NW 01:38:07 33° NW visible
21 Apr ? 00:14:28 10° NNE 00:16:49 26° NE 00:16:49 26° NE visible
21 Apr ? 01:50:40 10° N 01:53:52 27° NW 01:53:52 27° NW visible
22 Apr ? 00:29:47 10° NNE 00:32:33 35° NE 00:32:33 35° NE visible
22 Apr ? 02:06:28 10° NNW 02:09:35 20° WNW 02:09:35 20° WNW visible
23 Apr ? 00:45:10 10° NNE 00:48:15 45° NNE 00:48:15 45° NNE visible
23 Apr ? 02:22:24 10° NNW 02:24:55 15° WNW 02:25:18 15° WNW visible
23 Apr ? 23:26:36 10° ENE 23:26:54 11° ENE 23:26:54 11° ENE visible
24 Apr ? 01:00:36 10° NNE 01:03:57 53° N 01:03:57 53° N visible
24 Apr ? 02:38:43 10° NW 02:40:09 12° NW 02:40:59 11° WNW visible
24 Apr ? 23:41:07 10° NE 23:42:35 15° ENE 23:42:35 15° ENE visible
25 Apr ? 01:16:04 10° N 01:19:37 49° NNW 01:19:37 49° NNW visible
25 Apr ? 23:56:02 10° NE 23:58:14 21° ENE 23:58:14 21° ENE visible
26 Apr ? 01:31:37 10° N 01:35:17 39° NW 01:35:17 39° NW visible
27 Apr ? 00:11:07 10° NNE 00:13:53 28° ENE 00:13:53 28° ENE visible
27 Apr ? 01:47:12 10° N 01:50:56 29° WNW 01:50:56 29° WNW visible
28 Apr ? 00:26:18 10° NNE 00:29:30 39° ENE 00:29:30 39° ENE visible
28 Apr ? 02:02:51 10° NNW 02:06:10 22° WNW 02:06:33 22° WNW visible
